TimeEDT,TemperatureF,Dew PointF,Humidity,Sea Level PressureIn,VisibilityMPH,Wind Direction,Wind SpeedMPH,Gust SpeedMPH,PrecipitationIn,Events,Conditions,WindDirDegrees,DateUTC
12:53 AM,77.0,64.9,66,30.17,10.0,East,12.7,-,N/A,,Partly Cloudy,80,2013-05-27 04:53:00
1:53 AM,75.9,64.9,69,30.15,10.0,East,12.7,-,N/A,,Partly Cloudy,80,2013-05-27 05:53:00
2:53 AM,75.9,64.9,69,30.13,10.0,East,11.5,16.1,N/A,,Clear,80,2013-05-27 06:53:00
3:53 AM,75.9,66.0,71,30.12,10.0,East,9.2,-,N/A,,Partly Cloudy,80,2013-05-27 07:53:00
4:53 AM,75.9,66.9,74,30.11,10.0,East,8.1,-,N/A,,Clear,80,2013-05-27 08:53:00
5:53 AM,75.9,68.0,76,30.11,10.0,East,9.2,-,N/A,,Scattered Clouds,80,2013-05-27 09:53:00
6:53 AM,77.0,68.0,74,30.12,10.0,East,9.2,-,N/A,,Mostly Cloudy,80,2013-05-27 10:53:00
7:53 AM,79.0,68.0,69,30.13,10.0,East,11.5,-,N/A,,Clear,80,2013-05-27 11:53:00
8:53 AM,81.0,68.0,65,30.14,10.0,East,17.3,24.2,N/A,,Scattered Clouds,80,2013-05-27 12:53:00
9:44 AM,82.4,69.8,66,30.14,10.0,East,17.3,-,N/A,,Mostly Cloudy,80,2013-05-27 13:44:00
9:53 AM,82.9,69.1,63,30.14,10.0,ENE,18.4,24.2,N/A,,Mostly Cloudy,70,2013-05-27 13:53:00
10:11 AM,82.4,69.8,66,30.14,10.0,East,19.6,-,N/A,,Mostly Cloudy,90,2013-05-27 14:11:00
10:53 AM,82.9,71.1,67,30.15,10.0,East,16.1,24.2,N/A,,Mostly Cloudy,100,2013-05-27 14:53:00
11:20 AM,84.2,69.8,62,30.15,10.0,East,19.6,25.3,N/A,,Mostly Cloudy,100,2013-05-27 15:20:00
11:53 AM,84.0,69.1,61,30.15,10.0,East,19.6,25.3,N/A,,Mostly Cloudy,80,2013-05-27 15:53:00
12:53 PM,82.9,71.1,67,30.15,10.0,ENE,18.4,25.3,N/A,,Overcast,70,2013-05-27 16:53:00
1:07 PM,84.2,71.6,66,30.16,10.0,ENE,15.0,25.3,N/A,,Scattered Clouds,70,2013-05-27 17:07:00
1:50 PM,82.4,69.8,66,30.15,10.0,East,19.6,26.5,N/A,,Mostly Cloudy,80,2013-05-27 17:50:00
1:53 PM,82.9,71.1,67,30.15,10.0,ENE,18.4,26.5,N/A,,Mostly Cloudy,60,2013-05-27 17:53:00
2:34 PM,84.2,69.8,62,30.14,10.0,ENE,17.3,-,N/A,,Overcast,60,2013-05-27 18:34:00
2:41 PM,84.2,69.8,62,30.14,10.0,ENE,17.3,-,N/A,,Overcast,70,2013-05-27 18:41:00
2:53 PM,82.9,71.1,67,30.14,10.0,ENE,18.4,25.3,N/A,,Overcast,70,2013-05-27 18:53:00
3:22 PM,82.4,71.6,70,30.12,10.0,NE,19.6,26.5,N/A,,Mostly Cloudy,50,2013-05-27 19:22:00
3:53 PM,84.0,71.1,65,30.11,10.0,ENE,17.3,25.3,N/A,,Overcast,60,2013-05-27 19:53:00
4:07 PM,82.4,69.8,66,30.10,10.0,East,17.3,-,N/A,,Overcast,80,2013-05-27 20:07:00
4:29 PM,84.2,71.6,66,30.10,10.0,ENE,18.4,26.5,N/A,,Mostly Cloudy,60,2013-05-27 20:29:00
4:53 PM,82.0,70.0,67,30.09,10.0,ENE,18.4,24.2,N/A,,Mostly Cloudy,60,2013-05-27 20:53:00
5:53 PM,81.0,70.0,69,30.09,10.0,East,20.7,26.5,N/A,,Mostly Cloudy,80,2013-05-27 21:53:00
6:16 PM,82.4,69.8,66,30.08,10.0,ENE,20.7,28.8,N/A,,Mostly Cloudy,70,2013-05-27 22:16:00
6:24 PM,80.6,69.8,70,30.08,10.0,ENE,19.6,26.5,N/A,,Scattered Clouds,70,2013-05-27 22:24:00
6:32 PM,82.4,69.8,66,30.08,10.0,East,20.7,26.5,N/A,,Mostly Cloudy,90,2013-05-27 22:32:00
6:51 PM,80.6,71.6,74,30.08,10.0,East,17.3,24.2,N/A,,Mostly Cloudy,80,2013-05-27 22:51:00
6:53 PM,81.0,71.1,72,30.08,10.0,ENE,16.1,24.2,N/A,,Mostly Cloudy,70,2013-05-27 22:53:00
7:00 PM,80.6,71.6,74,30.08,10.0,ENE,13.8,-,N/A,,Mostly Cloudy,70,2013-05-27 23:00:00
7:15 PM,80.6,69.8,70,30.09,10.0,East,19.6,-,N/A,,Scattered Clouds,90,2013-05-27 23:15:00
7:53 PM,80.1,71.1,74,30.09,10.0,East,13.8,21.9,N/A,,Mostly Cloudy,80,2013-05-27 23:53:00
8:13 PM,78.8,71.6,78,30.09,10.0,East,16.1,-,N/A,,Mostly Cloudy,80,2013-05-28 00:13:00
8:23 PM,78.8,71.6,78,30.10,10.0,East,15.0,-,N/A,,Mostly Cloudy,80,2013-05-28 00:23:00
8:40 PM,78.8,71.6,78,30.09,10.0,East,16.1,-,N/A,,Mostly Cloudy,90,2013-05-28 00:40:00
8:53 PM,79.0,71.1,77,30.10,10.0,East,19.6,28.8,N/A,,Partly Cloudy,80,2013-05-28 00:53:00
9:33 PM,78.8,71.6,78,30.10,10.0,East,15.0,-,N/A,,Mostly Cloudy,80,2013-05-28 01:33:00
9:53 PM,79.0,71.1,77,30.11,10.0,East,18.4,23.0,N/A,,Mostly Cloudy,80,2013-05-28 01:53:00
10:05 PM,78.8,71.6,78,30.11,10.0,East,16.1,24.2,N/A,,Mostly Cloudy,90,2013-05-28 02:05:00
10:41 PM,78.8,71.6,78,30.12,10.0,East,18.4,24.2,N/A,,Mostly Cloudy,80,2013-05-28 02:41:00
10:48 PM,78.8,71.6,78,30.11,10.0,East,15.0,24.2,N/A,,Scattered Clouds,80,2013-05-28 02:48:00
10:53 PM,79.0,71.1,77,30.11,10.0,East,13.8,24.2,N/A,,Partly Cloudy,90,2013-05-28 02:53:00
11:41 PM,78.8,71.6,78,30.12,10.0,East,12.7,-,0.00,,Mostly Cloudy,80,2013-05-28 03:41:00
11:53 PM,78.1,72.0,81,30.12,10.0,East,12.7,-,0.00,,Mostly Cloudy,80,2013-05-28 03:53:00